Location: Holiday Acres Laynes 2 Mobile Home Park
(26.7249°N, 81.8671°W)
Time: 13:07:07
(UTC+00:00)

Cosmos 2181 Rocket - Pass Details

Date: 25 November 2020
Orbit: 951 x 1015 km, 82.9° (Epoch: 23 January)

Event Time Altitude Azimuth Distance (km) Brightness Sun altitude
Rises 23:32:20 0° 190° (S) 3,735 7.4 -13.0°
Reaches altitude 10° 23:34:53 10° 192° (SSW) 2,788 6.8 -13.5°
Maximum altitude 23:41:16 70° 276° (W) 1,075 4.4 -14.9°
Drops below altitude 10° 23:47:40 10° 359° (N) 2,785 6.2 -16.3°
Sets 23:50:13 0° 2° (N) 3,731 6.9 -16.8°
